[[{"header":{"parameterUnit":"m.s-1","parameterCategory":1,"la1":30.2991,"la2":30.254,"lo1":-89.0895,"lo2":-89.0444,"dy":0.0017,"dx":0.0017,"nx":28,"ny":28,"refTime":"2023-10-02T21:00:00:Z","depth":0,"parameterNumber":2,"parameterNumberName":"U-component_of_WINDS"},"data":[0,0,0,0,0,0,0,0,0,0,0,0,0,0,0,0,0,0,0,0,0,0,0,0,0,0,0,0,0,0,0,0,0,0,0,0,0,0,0,0,0,0,0,0,0,0,0,0,0,0,0,0,0,0,0,0,0,0,-6.0417,-6.0416,0,-6.0356,-6.0356,-6.0355,-6.0195,-6.0191,-6.0188,-6.0184,-6.0126,-6.0128,-6.0129,0,0,0,0,0,0,0,0,0,0,0,0,0,-6.0398,-6.04,-6.0417,-6.0416,-6.0415,-6.0357,-6.0356,-6.0355,-6.0195,-6.0191,-6.0187,-6.0183,-6.0126,-6.0128,-6.013,0,0,0,0,0,0,0,0,0,0,0,0,0,-6.0379,-6.04,-6.0417,-6.0328,-6.032,-6.0357,-6.0356,-6.0355,-6.0196,-6.0191,-6.0186,-6.0181,-6.0125,-6.0127,-6.013,-6.0249,0,0,-6.0137,-6.0139,0,0,0,0,0,0,0,0,-6.0381,-6.038,-6.0342,-6.0335,-6.0325,-6.0278,-6.0328,-6.0319,-6.0197,-6.0243,-6.0184,-6.0178,-6.0181,-6.0179,-6.0179,-6.0246,-6.0243,-6.0138,-6.0139,-6.014,-6.0141,0,0,0,0,0,0,0,-6.0382,-6.0382,-6.0393,-6.0342,-6.0332,-6.0293,-6.0285,-6.0325,-6.0242,-6.0239,-6.0227,-6.0222,-6.0175,-6.0177,-6.0176,-6.0243,-6.0138,-6.014,-6.0141,-6.0142,-6.0407,-6.0412,0,0,0,0,0,0,-6.0396,-6.0384,-6.0395,-6.0391,-6.0341,-6.0298,-6.0288,-6.0298,-6.0241,-6.0227,-6.0226,-6.0215,-6.0175,-6.0173,-6.0174,-6.031,-6.014,-6.0143,-6.0144,-6.0401,-6.0408,-6.0414,0,0,0,0,0,0,-6.0396,-6.0398,-6.0397,-6.0384,-6.0381,-6.0304,-6.0316,-6.03,-6.0301,-6.0232,-6.0216,-6.0243,-6.0171,-6.017,-6.0231,-6.0306,-6.0144,-6.0146,-6.0395,-6.0404,-6.0411,-6.0584,0,0,0,0,0,0,-6.0396,-6.0399,-6.0442,-6.0387,-6.0383,-6.0455,-6.032,-6.0302,-6.0305,-6.0289,-6.0243,-6.023,-6.0167,-6.0229,-6.0234,-6.0306,-6.0148,-6.0388,-6.0399,-6.0409,-6.0572,-6.0598,-6.062,0,0,0,0,0,-6.0396,-6.0493,-6.0445,-6.0447,-6.0435,-6.046,-6.0458,-6.0382,-6.0312,-6.0355,-6.0311,-6.0232,-6.0297,-6.0236,-6.0241,-6.0315,-6.0383,-6.0396,-6.0408,-6.0561,-6.0592,-6.0619,0,0,0,0,0,0,-6.056,-6.0484,-6.043,-6.0512,-6.0494,-6.0433,-6.0485,-6.0417,-6.0419,-6.0404,-6.0311,-6.0302,-6.0377,-6.0352,-6.0286,-6.0429,-6.0327,-6.0341,-6.0442,-6.0471,-6.0495,-6.05,-6.015,0,0,0,0,0,-6.0606,-6.0632,-6.0564,-6.0644,-6.0637,-6.0564,-6.0571,-6.0515,-6.0492,-6.0484,-6.0444,-6.0426,-6.0443,-6.0455,-6.0467,-6.0567,-6.0556,-6.0621,-6.0645,-6.0665,-6.0679,-6.0732,-6.0761,-6.0455,-6.0455,-6.0455,0,0,-6.0701,-6.0663,-6.0684,-6.0676,-6.0654,-6.0685,-6.0558,-6.0594,-6.0617,-6.0489,-6.0545,-6.0516,-6.049,-6.0573,-6.0607,-6.0554,-6.0761,-6.0681,-6.0698,-6.07,-6.0748,-6.0777,-6.0803,-6.0464,-6.0462,-6.0461,0,0,-6.0889,-6.0862,-6.0926,-6.0908,-6.0878,-6.0828,-6.0844,-6.0794,-6.077,-6.0824,-6.073,-6.0756,-6.0786,-6.0772,-6.0769,-6.0956,-6.0884,-6.0962,-6.1088,-6.1141,-6.1166,-6.1186,-6.1255,-6.128,-6.0976,-6.0976,-6.0976,0,-6.1011,-6.1051,-6.0968,-6.1011,-6.1011,-6.0897,-6.0963,-6.095,-6.0926,-6.0929,-6.087,-6.0907,-6.0881,-6.096,-6.1006,-6.1007,-6.1023,-6.0967,-6.1169,-6.1189,-6.1207,-6.1271,-6.1297,-6.0986,-6.0985,-6.0984,-6.0983,0,-6.1204,-6.1234,-6.1289,-6.1269,-6.1275,-6.133,-6.1256,-6.1273,-6.1216,-6.1174,-6.1233,-6.1198,-6.1202,-6.1216,-6.1161,-6.1288,-6.1257,-6.1185,-6.1081,-6.1248,-6.1306,-6.133,-6.1,-6.0996,-6.0994,-6.0991,0,0,-6.1492,-6.1426,-6.1448,-6.1439,-6.1398,-6.1421,-6.1471,-6.1474,-6.1491,-6.1479,-6.1521,-6.155,-6.1484,-6.1481,-6.1424,-6.1471,-6.1623,-6.1393,-6.1391,-6.1438,-6.1763,-6.1818,-6.1848,-6.1575,-6.1579,-6.1583,-6.1766,0,-6.1671,-6.1752,-6.168,-6.1776,-6.1804,-6.1698,-6.1742,-6.1723,-6.1686,-6.1706,-6.1664,-6.1688,-6.1598,-6.1595,-6.1637,-6.1596,-6.1688,-6.1582,-6.1615,-6.1617,-6.1625,-6.1878,-6.1936,-6.211,-6.1788,-6.1792,-6.1795,0,-6.189,-6.1888,-6.1987,-6.1943,-6.1952,-6.1993,-6.1991,-6.201,-6.1988,-6.1958,-6.1956,-6.1887,-6.1935,-6.1834,-6.1901,-6.1831,-6.184,-6.1823,-6.1827,-6.1828,-6.1716,-6.1887,-6.2164,-6.2191,-6.183,-6.1827,-6.1825,0,-6.2093,-6.2115,-6.2177,-6.2172,-6.2122,-6.2153,-6.2134,-6.2106,-6.2114,-6.2113,-6.2117,-6.2122,-6.2126,-6.2132,-6.2067,-6.1999,-6.2143,-6.2036,-6.2121,-6.2123,-6.2156,-6.2155,-6.244,-6.2162,-6.2161,-6.2161,-6.216,0,-6.23,-6.2365,-6.2268,-6.2307,-6.2377,-6.2295,-6.2367,-6.2337,-6.2314,-6.2347,-6.2255,-6.2288,-6.2199,-6.2224,-6.2173,-6.2238,-6.2239,-6.2218,-6.2204,-6.2226,-6.223,-6.2232,-6.2218,-6.2168,-6.2166,-6.2165,-6.2164,0,-6.2538,-6.2475,-6.2537,-6.2484,-6.2473,-6.2528,-6.2483,-6.2518,-6.2476,-6.2518,-6.2523,-6.2457,-6.2481,-6.2417,-6.2431,-6.2397,-6.2491,-6.2456,-6.2498,-6.2488,-6.2578,-6.2571,-6.2874,-6.291,-6.2609,-6.2612,-6.2614,0,-6.2675,-6.2722,-6.2676,-6.2691,-6.2676,-6.2701,-6.2708,-6.263,-6.2641,-6.2621,-6.2659,-6.2676,-6.2684,-6.2728,-6.2682,-6.2693,-6.2659,-6.2765,-6.266,-6.2683,-6.2663,-6.2661,-6.2666,-6.2787,-6.2791,-6.2794,-6.2796,0,-6.2925,-6.2892,-6.2905,-6.2909,-6.292,-6.292,-6.2912,-6.293,-6.2846,-6.2865,-6.2888,-6.2895,-6.291,-6.2928,-6.293,-6.2911,-6.2841,-6.283,-6.285,-6.2874,-6.2897,-6.2887,-6.2558,-6.2823,-6.282,-6.2818,-6.2817,-6.2816,-6.3116,-6.3155,-6.3129,-6.3148,-6.3134,-6.3131,-6.3161,-6.3123,-6.3141,-6.3146,-6.3099,-6.3134,-6.3113,-6.3107,-6.3096,-6.3123,-6.3075,-6.3104,-6.3112,-6.3121,-6.3136,-6.2892,-6.3123,-6.3122,-6.3121,-6.312,-6.312,0,-6.3363,-6.3341,-6.336,-6.3353,-6.3369,-6.3301,-6.329,-6.3309,-6.3339,-6.3325,-6.3336,-6.3365,-6.3383,-6.3339,-6.3351,-6.3381,-6.3349,-6.3387,-6.3384,-6.3382,-6.3178,-6.3159,-6.3412,-6.3412,-6.3412,-6.3412,-6.3412,-6.3412,-6.3493,-6.3555,-6.352,-6.3576,-6.3554,-6.3586,-6.3586,-6.3583,-6.3572,-6.3607,-6.3622,-6.3593,-6.3568,-6.3578,-6.3592,-6.3579,-6.3588,-6.3637,-6.3614,-6.3424,-6.3396,-6.3368,-6.3351,-6.364,-6.364,-6.3815,-6.3816,-6.3818]},{"header":{"parameterUnit":"m.s-1","parameterCategory":1,"la1":30.2991,"la2":30.254,"lo1":-89.0895,"lo2":-89.0444,"dy":0.0017,"dx":0.0017,"nx":28,"ny":28,"refTime":"2023-10-02T21:00:00:Z","depth":0,"parameterNumber":3,"parameterNumberName":"V-component_of_WINDS"},"data":[0,0,0,0,0,0,0,0,0,0,0,0,0,0,0,0,0,0,0,0,0,0,0,0,0,0,0,0,0,0,0,0,0,0,0,0,0,0,0,0,0,0,0,0,0,0,0,0,0,0,0,0,0,0,0,0,0,0,0.4987,0.4987,0,0.5026,0.5026,0.5027,0.5097,0.5099,0.51,0.5101,0.5137,0.5137,0.5137,0,0,0,0,0,0,0,0,0,0,0,0,0,0.4972,0.4972,0.4987,0.4987,0.4988,0.5026,0.5026,0.5027,0.5097,0.5099,0.51,0.5102,0.5137,0.5137,0.5137,0,0,0,0,0,0,0,0,0,0,0,0,0,0.4991,0.4972,0.4987,0.5028,0.5032,0.5025,0.5026,0.5027,0.5097,0.5099,0.5101,0.5103,0.5137,0.5137,0.5137,0.5092,0,0,0.5135,0.5135,0,0,0,0,0,0,0,0,0.499,0.4991,0.5021,0.5025,0.5029,0.5059,0.5034,0.5049,0.5096,0.5072,0.5101,0.5104,0.5109,0.5111,0.5114,0.5094,0.5096,0.5135,0.5135,0.5134,0.5134,0,0,0,0,0,0,0,0.4988,0.499,0.5002,0.5022,0.5027,0.5043,0.5048,0.5037,0.5078,0.5074,0.508,0.5083,0.5112,0.5114,0.5115,0.5096,0.5135,0.5135,0.5134,0.5134,0.5041,0.5039,0,0,0,0,0,0,0.4981,0.4989,0.5001,0.5003,0.5014,0.5042,0.5048,0.5047,0.5079,0.5086,0.5082,0.5086,0.5114,0.5116,0.5117,0.5066,0.5134,0.5134,0.5134,0.5044,0.5041,0.5039,0,0,0,0,0,0,0.4981,0.4982,0.4999,0.4997,0.5001,0.504,0.5039,0.5047,0.5049,0.5084,0.5092,0.5076,0.5116,0.5117,0.5098,0.5068,0.5134,0.5133,0.5046,0.5043,0.504,0.4964,0,0,0,0,0,0,0.498,0.4981,0.4965,0.4997,0.5001,0.498,0.5037,0.5046,0.5049,0.5056,0.5081,0.5088,0.5117,0.5098,0.5097,0.5069,0.5133,0.5049,0.5045,0.5041,0.4969,0.4959,0.4949,0,0,0,0,0,0.4979,0.4942,0.4964,0.4965,0.4982,0.4979,0.4981,0.5017,0.5046,0.503,0.5053,0.5087,0.5072,0.5096,0.5095,0.5066,0.5051,0.5046,0.5041,0.4974,0.4961,0.495,0,0,0,0,0,0,0.4904,0.4946,0.4972,0.4943,0.4957,0.4991,0.4971,0.5002,0.5007,0.5012,0.5056,0.5062,0.5036,0.505,0.5075,0.5025,0.5067,0.5062,0.5016,0.5004,0.4994,0.499,0.5133,0,0,0,0,0,0.4885,0.4879,0.4917,0.4888,0.4894,0.4931,0.4931,0.4958,0.4973,0.4979,0.5,0.5013,0.5011,0.5009,0.5009,0.4973,0.4979,0.4953,0.4943,0.4934,0.4928,0.4909,0.4897,0.5023,0.5023,0.5023,0,0,0.4843,0.4866,0.486,0.4873,0.4887,0.4879,0.4935,0.4925,0.4919,0.4977,0.496,0.4976,0.4993,0.4965,0.4953,0.4975,0.4896,0.4928,0.4921,0.492,0.4902,0.489,0.488,0.5019,0.502,0.502,0,0,0.4764,0.4781,0.4759,0.4772,0.4793,0.4818,0.4813,0.4842,0.4855,0.4839,0.4882,0.4876,0.4873,0.4883,0.4888,0.4814,0.4845,0.4813,0.476,0.474,0.473,0.4722,0.4693,0.4682,0.4808,0.4807,0.4807,0,0.4709,0.47,0.4743,0.473,0.4734,0.4788,0.4765,0.4776,0.4795,0.4796,0.4821,0.4818,0.4834,0.4808,0.479,0.4793,0.4786,0.4808,0.4729,0.472,0.4713,0.4686,0.4675,0.4803,0.4804,0.4804,0.4805,0,0.4631,0.4625,0.4604,0.4622,0.4625,0.4607,0.4646,0.4643,0.4671,0.4693,0.4676,0.4697,0.4702,0.4699,0.4725,0.4676,0.4689,0.4721,0.4764,0.4696,0.4671,0.4661,0.4797,0.4799,0.48,0.4801,0,0,0.4502,0.4546,0.4537,0.4546,0.4574,0.4569,0.4554,0.456,0.4556,0.4569,0.4555,0.4552,0.4582,0.4587,0.4616,0.4599,0.4537,0.4633,0.4634,0.4612,0.4482,0.4456,0.4443,0.4559,0.4558,0.4556,0.448,0,0.4426,0.4402,0.4441,0.4408,0.4401,0.4454,0.4441,0.4456,0.4477,0.4474,0.4498,0.4494,0.4535,0.4538,0.4524,0.4547,0.4511,0.4554,0.4545,0.4544,0.4535,0.4431,0.4403,0.4329,0.4471,0.4469,0.4468,0,0.4333,0.4342,0.4308,0.4338,0.4337,0.4324,0.4333,0.4331,0.4349,0.4366,0.4373,0.4407,0.4393,0.4437,0.4418,0.4446,0.4445,0.4456,0.4454,0.4452,0.4499,0.4423,0.4307,0.4295,0.4454,0.4455,0.4456,0,0.4238,0.4242,0.4223,0.4229,0.4264,0.4254,0.4268,0.4289,0.429,0.4299,0.43,0.4306,0.4308,0.4312,0.4346,0.4376,0.4322,0.4369,0.4333,0.4332,0.4316,0.4316,0.4195,0.4321,0.4321,0.4321,0.4322,0,0.4147,0.4124,0.4181,0.4168,0.4143,0.4189,0.4163,0.4182,0.42,0.4192,0.4239,0.4229,0.4277,0.4273,0.43,0.4278,0.428,0.4292,0.4298,0.4285,0.4283,0.4283,0.4287,0.4318,0.4319,0.432,0.432,0,0.4036,0.4073,0.4055,0.4091,0.4099,0.4079,0.411,0.4099,0.4125,0.4113,0.4113,0.4152,0.415,0.4186,0.419,0.4209,0.4173,0.4191,0.4167,0.4171,0.4132,0.4134,0.4004,0.3988,0.4126,0.4125,0.4124,0,0.3973,0.3957,0.3992,0.399,0.4002,0.3999,0.4001,0.4046,0.4046,0.4066,0.4053,0.4055,0.4058,0.4051,0.4079,0.4082,0.4098,0.4053,0.4099,0.4086,0.4094,0.4093,0.4091,0.4042,0.404,0.4039,0.4038,0,0.3858,0.3878,0.388,0.3888,0.389,0.3899,0.391,0.3906,0.3955,0.3953,0.3951,0.3954,0.3959,0.3959,0.3969,0.3982,0.4016,0.4024,0.4015,0.3999,0.3985,0.399,0.4137,0.4025,0.4026,0.4027,0.4028,0.4029,0.3767,0.3755,0.3777,0.3778,0.3792,0.3802,0.3794,0.3819,0.3819,0.3828,0.3855,0.3848,0.3867,0.3883,0.3894,0.3889,0.3911,0.3899,0.3895,0.3891,0.3882,0.3989,0.3891,0.3891,0.3892,0.3892,0.3892,0,0.3652,0.367,0.367,0.3686,0.3686,0.3722,0.3737,0.3734,0.3729,0.3745,0.3748,0.3745,0.3747,0.3776,0.378,0.377,0.3786,0.3769,0.3769,0.3771,0.3864,0.3869,0.3756,0.3756,0.3756,0.3756,0.3756,0.3756,0.3591,0.3572,0.3594,0.3582,0.36,0.3595,0.36,0.3609,0.3622,0.3618,0.362,0.364,0.3661,0.3667,0.3669,0.3678,0.3676,0.3653,0.3666,0.3751,0.3764,0.3777,0.3782,0.3653,0.3653,0.3574,0.3573,0.3572]}]]